Location: Kuppenheim
(48.8299°N, 8.2568°E)
Time: 08:30:40
(UTC+00:00)

YAOGAN 11 - Pass Details

Date: 20 June 2021
Orbit: 613 x 668 km, 98.3° (Epoch: 01 August)

Event Time Altitude Azimuth Distance (km) Brightness Sun altitude
Exits shadow 00:35:34 28° 179° (S) 1,204 5.0 -16.2°
Maximum altitude 00:37:51 71° 257° (WSW) 688 4.1 -16.1°
Drops below altitude 10° 00:42:23 10° 342° (NNW) 2,076 7.6 -15.9°
Sets 00:44:38 0° 345° (NNW) 3,000 8.6 -15.8°
